Soldotna, AK

1:48 AM AKST on November 19, 2017 (GMT -0900)
Soldotna

Weather History for PASX - December, 2010

Change the Weather History Date:

Friday, December 10, 2010

  Actual Average Record
Temperature  
Mean Temperature 4 °F -  
Max Temperature 17 °F 23 °F 44 °F (1985)
Min Temperature -7 °F 6 °F -32 °F (1964)
Degree Days  
Heating Degree Days 61    
Moisture  
Dew Point 2 °F    
Average Humidity 86    
Maximum Humidity 93    
Minimum Humidity 79    
Precipitation  
Precipitation 0.00 in - - ()
Sea Level Pressure  
Sea Level Pressure 29.63 in    
Wind  
Wind Speed 2 mph (East)    
Max Wind Speed 7 mph    
Max Gust Speed -    
Visibility 9 miles    
Events      
Averages and records for this station are not official NWS values.
T = Trace of Precipitation, MM = Missing Value Source: NWS Daily Summary

Daily Weather History Graph

Daily Weather History Graph

Search for Another Location

Airport or City:

Trip Planner

Search our weather history database for the weather conditions in past years. The results will help you decide how hot, cold, wet, or windy it might be!

Date:

Astronomy

Dec. 10, 2010 Rise Set
Actual Time 9:59 AM AKST 3:54 PM AKST
Civil Twilight 9:01 AM AKST 4:52 PM AKST
Nautical Twilight 8:04 AM AKST 5:49 PM AKST
Astronomical Twilight 7:12 AM AKST 6:41 PM AKST
Moon 12:32 PM AKST (12/10) 10:15 PM AKST (12/10)
Length of Visible Light 7h 50m
Length of Day
5h 54m
Waxing Crescent, 25% of the Moon is Illuminated
Dec 10
Waxing Crescent
Dec 13
First Quarter
Dec 20
Full
Dec 27
Last Quarter
Jan 4
New

Hourly Weather History & Observations

Time (AKST) Temp. Windchill Dew Point Humidity Pressure Visibility Wind Dir Wind Speed Gust Speed Precip Events Conditions
12:56 AM -5.8 °F -14.5 °F -7.6 °F 92% 29.63 in 10.0 mi ESE 3.5 mph - N/A   Partly Cloudy
1:56 AM -5.8 °F - -7.6 °F 92% 29.63 in 10.0 mi Calm Calm - N/A   Clear
2:56 AM -5.8 °F - -9.4 °F 84% 29.62 in 10.0 mi Calm Calm - N/A   Clear
3:56 AM -5.8 °F -14.5 °F -9.4 °F 84% 29.62 in 10.0 mi East 3.5 mph - N/A   Clear
4:56 AM -7.6 °F - -11.2 °F 84% 29.62 in 10.0 mi Calm Calm - N/A   Scattered Clouds
5:56 AM -5.8 °F -16.7 °F -9.4 °F 84% 29.61 in 10.0 mi East 4.6 mph - N/A   Clear
6:56 AM -5.8 °F - -9.4 °F 84% 29.62 in 10.0 mi Calm Calm - N/A   Partly Cloudy
7:56 AM -5.8 °F -16.7 °F -9.4 °F 84% 29.62 in 10.0 mi ESE 4.6 mph - N/A   Clear
8:56 AM -5.8 °F -16.7 °F -7.6 °F 92% 29.62 in 10.0 mi East 4.6 mph - N/A   Scattered Clouds
9:56 AM -2.2 °F -12.5 °F -5.8 °F 85% 29.63 in 10.0 mi East 4.6 mph - N/A   Overcast
10:56 AM 1.4 °F - -2.2 °F 85% 29.63 in 10.0 mi Calm Calm - N/A   Overcast
11:56 AM 6.8 °F - 3.2 °F 85% 29.63 in 10.0 mi Calm Calm - N/A   Overcast
12:56 PM 8.6 °F - 5.0 °F 85% 29.63 in 10.0 mi Calm Calm - N/A   Overcast
1:56 PM 10.4 °F 4.0 °F 6.8 °F 85% 29.62 in 10.0 mi SE 3.5 mph - N/A   Overcast
2:56 PM 10.4 °F - 6.8 °F 85% 29.61 in 10.0 mi Calm Calm - N/A   Scattered Clouds
3:56 PM 10.4 °F 4.0 °F 8.6 °F 92% 29.62 in 10.0 mi East 3.5 mph - N/A   Overcast
4:56 PM 12.2 °F 1.7 °F 8.6 °F 85% 29.62 in 10.0 mi East 6.9 mph - N/A   Overcast
5:56 PM 12.2 °F 6.1 °F 8.6 °F 85% 29.63 in 10.0 mi ENE 3.5 mph - N/A   Mostly Cloudy
6:56 PM 12.2 °F 6.1 °F 10.4 °F 92% 29.64 in 8.0 mi East 3.5 mph - N/A   Overcast
7:56 PM 14.0 °F - 10.4 °F 86% 29.65 in 5.0 mi Calm Calm - N/A   Overcast
8:10 PM 15.8 °F - 12.2 °F 86% 29.65 in 2.5 mi Calm Calm - N/A   Overcast
8:29 PM 15.8 °F - 12.2 °F 86% 29.66 in 3.0 mi Calm Calm - N/A   Overcast
8:56 PM 15.8 °F 10.2 °F 12.2 °F 86% 29.66 in 8.0 mi ENE 3.5 mph - N/A   Overcast
9:56 PM 15.8 °F - 12.2 °F 86% 29.67 in 9.0 mi Calm Calm - N/A   Overcast
10:56 PM 15.8 °F 10.2 °F 14.0 °F 93% 29.67 in 10.0 mi NE 3.5 mph - N/A   Overcast
11:56 PM 17.6 °F 10.7 °F 12.2 °F 79% 29.68 in 10.0 mi ENE 4.6 mph - N/A   Overcast